EW1645 Weather Reports


time (UTC)temp
C
wind
direction
speed
KPH
gust
KPH
rain 1hr
cm
rain 24hr
cm
rain mn
cm
humidity
%
barometer
mb
20260508063022 6 227 0.0 0.0 0.00 0.03 0.00 82 1016.1
20260508062521 7 227 0.0 0.0 0.00 0.03 0.00 81 1016.1
20260508062022 7 227 0.0 0.0 0.00 0.03 0.00 80 1016.1
20260508061521 7 227 0.0 0.0 0.00 0.03 0.00 79 1016.0
20260508060523 7 210 0.0 4.8 0.00 0.03 0.00 78 1016.1
20260508060021 7 255 0.0 1.6 0.00 0.03 0.00 80 1016.2
20260508055522 7 250 1.6 4.8 0.00 0.03 0.00 79 1016.1
20260508055022 7 311 0.0 0.0 0.00 0.03 0.00 78 1016.1
20260508054521 7 313 0.0 0.0 0.00 0.03 0.00 79 1016.0
20260508054022 7 313 0.0 0.0 0.00 0.03 0.00 80 1015.9
20260508053022 7 313 0.0 0.0 0.00 0.05 0.00 81 1015.8
20260508052521 7 313 0.0 0.0 0.00 0.05 0.00 81 1015.7
20260508052022 7 312 0.0 0.0 0.00 0.05 0.00 81 1015.7
20260508051522 7 312 0.0 0.0 0.00 0.05 0.00 80 1015.6
20260508051021 7 312 0.0 0.0 0.00 0.05 0.00 79 1015.6
20260508050522 7 312 0.0 0.0 0.00 0.05 0.00 80 1015.5
20260508050021 8 312 0.0 0.0 0.00 0.05 0.00 80 1015.4
20260508045523 8 312 0.0 1.6 0.00 0.05 0.00 80 1015.4
20260508044521 8 317 0.0 0.0 0.00 0.05 0.00 78 1015.2
20260508044022 8 317 0.0 0.0 0.00 0.05 0.00 79 1015.2
20260508043521 8 317 0.0 0.0 0.00 0.05 0.00 78 1015.1
20260508043021 8 317 0.0 0.0 0.00 0.05 0.00 78 1015.1
20260508042522 8 319 0.0 0.0 0.00 0.05 0.00 79 1015.1
20260508042021 8 4 0.0 0.0 0.00 0.05 0.00 78 1015.0
20260508041022 8 4 0.0 0.0 0.00 0.05 0.00 78 1015.0
20260508040522 8 4 0.0 0.0 0.00 0.05 0.00 79 1015.0
20260508040022 8 4 0.0 0.0 0.00 0.05 0.00 78 1014.8
20260508035522 8 4 0.0 0.0 0.00 0.05 0.05 78 1014.8
20260508035022 8 3 0.0 0.0 0.00 0.05 0.05 78 1014.6
20260508034521 8 4 0.0 0.0 0.00 0.05 0.05 78 1014.6
20260508034021 8 4 0.0 0.0 0.00 0.05 0.05 77 1014.7
20260508033021 9 4 0.0 0.0 0.00 0.05 0.05 76 1014.7
20260508032521 9 4 0.0 0.0 0.00 0.05 0.05 76 1014.7
20260508032022 9 4 0.0 0.0 0.00 0.05 0.05 76 1014.6
20260508031521 9 6 0.0 0.0 0.00 0.05 0.05 76 1014.6
20260508031021 9 6 0.0 1.6 0.00 0.05 0.05 77 1014.5
20260508030522 9 354 0.0 1.6 0.00 0.05 0.05 76 1014.5
20260508030021 9 354 0.0 1.6 0.00 0.05 0.05 75 1014.4
20260508025022 10 294 0.0 1.6 0.00 0.05 0.05 74 1014.3
20260508024521 10 248 0.0 0.0 0.00 0.05 0.05 73 1014.2
20260508024021 10 248 0.0 0.0 0.00 0.05 0.05 74 1014.2
20260508023022 10 248 0.0 0.0 0.00 0.10 0.05 73 1014.1
20260508022522 11 248 0.0 0.0 0.00 0.13 0.05 71 1014.1
20260508022021 11 248 0.0 0.0 0.00 0.13 0.05 69 1014.0
20260508021521 11 248 0.0 1.6 0.00 0.13 0.05 68 1013.9
20260508021021 11 248 0.0 0.0 0.00 0.15 0.05 67 1013.8
20260508020521 11 248 0.0 1.6 0.00 0.15 0.05 65 1013.7
20260508020021 11 248 0.0 1.6 0.00 0.15 0.05 66 1013.6
20260508015021 12 248 0.0 1.6 0.00 0.15 0.05 66 1013.4
20260508014521 12 198 0.0 1.6 0.00 0.15 0.05 65 1013.3
20260508014021 12 264 0.0 1.6 0.00 0.15 0.05 63 1013.2
20260508013021 12 117 0.0 0.0 0.00 0.15 0.05 61 1013.0
20260508012521 12 70 0.0 0.0 0.00 0.15 0.05 61 1012.9
20260508012021 12 70 0.0 1.6 0.00 0.15 0.05 60 1012.9
20260508011522 12 72 0.0 1.6 0.00 0.15 0.05 59 1012.8
20260508010521 13 72 0.0 3.2 0.00 0.15 0.05 60 1012.6
20260508010021 13 224 0.0 3.2 0.00 0.15 0.05 59 1012.6
20260508005520 13 184 0.0 1.6 0.00 0.15 0.05 58 1012.5
20260508005021 13 40 0.0 1.6 0.00 0.15 0.05 57 1012.4
20260508004522 13 262 0.0 0.0 0.00 0.15 0.05 57 1012.5
20260508004021 13 262 0.0 1.6 0.00 0.15 0.05 56 1012.5
20260508003522 13 245 0.0 1.6 0.00 0.15 0.05 57 1012.5
20260508003021 13 254 1.6 4.8 0.00 0.15 0.05 55 1012.5
20260508002021 14 221 0.0 4.8 0.00 0.15 0.05 56 1012.4
20260508001521 14 222 1.6 3.2 0.00 0.15 0.05 55 1012.4
20260508000520 15 223 1.6 9.7 0.00 0.15 0.05 53 1012.4
20260508000022 15 260 1.6 4.8 0.00 0.15 0.05 53 1012.3
20260507235522 15 183 3.2 9.7 0.00 0.15 0.05 53 1012.2
20260507234020 15 280 3.2 12.9 0.00 0.15 0.05 53 1012.0
20260507233521 15 253 3.2 8.0 0.00 0.15 0.05 54 1011.9
20260507233021 15 249 3.2 9.7 0.00 0.15 0.05 55 1011.8
20260507232520 16 219 1.6 3.2 0.00 0.15 0.05 55 1011.8
20260507232021 16 269 0.0 3.2 0.00 0.15 0.05 53 1011.7
20260507231522 16 302 1.6 4.8 0.00 0.15 0.05 53 1011.5
20260507231021 17 345 3.2 8.0 0.00 0.15 0.05 52 1011.5
20260507230521 17 273 1.6 8.0 0.00 0.15 0.05 52 1011.5
20260507230020 17 358 1.6 11.3 0.00 0.15 0.05 53 1011.4
20260507225521 17 249 1.6 4.8 0.00 0.15 0.05 53 1011.4
20260507225021 17 340 3.2 4.8 0.00 0.15 0.05 55 1011.3
20260507224520 16 235 0.0 0.0 0.00 0.15 0.05 57 1011.2
20260507224021 16 359 0.0 9.7 0.00 0.15 0.05 55 1011.2
20260507223521 17 269 3.2 11.3 0.00 0.15 0.05 55 1011.2
20260507223020 17 252 3.2 12.9 0.00 0.15 0.05 55 1011.0
20260507222020 17 283 3.2 8.0 0.00 0.15 0.05 52 1010.9
20260507221022 17 351 3.2 14.5 0.00 0.15 0.05 60 1010.8
20260507220520 16 287 0.0 4.8 0.00 0.15 0.05 63 1010.7
20260507220020 16 275 1.6 4.8 0.00 0.15 0.05 66 1010.7
20260507215521 16 225 0.0 3.2 0.00 0.15 0.05 66 1010.6
20260507215021 16 206 1.6 4.8 0.00 0.15 0.05 66 1010.6
20260507214520 16 234 1.6 4.8 0.00 0.15 0.05 68 1010.6
20260507214021 16 260 0.0 4.8 0.00 0.15 0.05 69 1010.6
20260507213521 16 231 1.6 11.3 0.00 0.15 0.05 67 1010.6
20260507213022 16 265 1.6 4.8 0.00 0.15 0.05 67 1010.7
20260507212521 16 243 1.6 4.8 0.00 0.15 0.05 67 1010.7
20260507212020 16 266 1.6 3.2 0.00 0.15 0.05 67 1010.7
20260507211021 16 245 1.6 4.8 0.00 0.15 0.05 68 1010.8
20260507210520 16 262 1.6 3.2 0.00 0.15 0.05 69 1010.7
20260507210020 16 271 1.6 8.0 0.00 0.15 0.05 69 1010.5
20260507205520 16 263 1.6 3.2 0.00 0.15 0.05 66 1010.6
20260507204520 17 221 3.2 11.3 0.00 0.15 0.05 64 1010.5
20260507204020 17 235 4.8 9.7 0.00 0.15 0.05 63 1010.4
20260507203521 17 234 4.8 14.5 0.00 0.15 0.05 65 1010.4
20260507202520 17 127 3.2 9.7 0.00 0.15 0.05 65 1010.4
20260507202021 17 257 3.2 4.8 0.00 0.15 0.05 67 1010.4
20260507201520 16 229 1.6 4.8 0.00 0.15 0.05 69 1010.4
20260507200520 15 233 1.6 8.0 0.00 0.15 0.05 71 1010.7
20260507200021 15 245 3.2 4.8 0.00 0.15 0.05 70 1010.9
20260507195521 15 158 0.0 4.8 0.00 0.15 0.05 76 1011.0
20260507195020 14 245 3.2 4.8 0.00 0.15 0.05 72 1011.1
20260507194520 14 133 0.0 1.6 0.00 0.15 0.05 76 1011.3
20260507194020 14 244 0.0 1.6 0.00 0.15 0.05 75 1011.4
20260507193521 14 245 0.0 1.6 0.00 0.15 0.05 77 1011.5
20260507193020 14 152 1.6 1.6 0.00 0.15 0.05 78 1011.7
20260507192520 13 214 0.0 0.0 0.00 0.15 0.05 82 1011.7
20260507192020 13 214 0.0 1.6 0.00 0.15 0.05 81 1011.6
20260507191521 14 214 0.0 1.6 0.00 0.15 0.05 81 1011.8
20260507190521 13 243 0.0 1.6 0.00 0.15 0.05 84 1011.7
20260507190020 13 247 0.0 0.0 0.00 0.15 0.05 82 1011.7
20260507185520 13 247 0.0 1.6 0.00 0.15 0.05 82 1011.9
20260507185020 13 257 1.6 3.2 0.00 0.15 0.05 82 1012.0
20260507184522 13 262 0.0 1.6 0.00 0.15 0.05 81 1011.9
20260507184020 13 259 0.0 3.2 0.00 0.15 0.05 82 1012.0
20260507183521 13 224 0.0 3.2 0.00 0.15 0.05 84 1012.0
20260507183020 13 231 0.0 0.0 0.00 0.15 0.05 84 1012.1
20260507182021 13 231 0.0 0.0 0.00 0.15 0.05 86 1012.1
20260507181520 13 231 0.0 0.0 0.00 0.15 0.05 88 1011.9
20260507181020 12 231 0.0 0.0 0.00 0.15 0.05 86 1011.9
20260507180520 12 231 0.0 0.0 0.03 0.15 0.05 88 1012.1
20260507180020 12 231 0.0 0.0 0.03 0.15 0.05 87 1012.1
20260507175520 12 231 0.0 0.0 0.03 0.15 0.05 88 1012.0
20260507175019 12 231 0.0 0.0 0.03 0.15 0.05 88 1012.1
20260507174520 12 345 0.0 0.0 0.03 0.15 0.05 89 1012.1
20260507174020 12 8 0.0 0.0 0.03 0.15 0.05 88 1012.0
20260507173519 12 8 0.0 0.0 0.03 0.15 0.05 88 1012.1
20260507173020 12 8 0.0 0.0 0.03 0.15 0.05 88 1012.2
20260507171519 13 8 0.0 0.0 0.03 0.15 0.05 85 1012.0
20260507171020 13 12 0.0 1.6 0.03 0.15 0.05 81 1012.1
20260507170520 13 129 0.0 1.6 0.00 0.13 0.03 80 1012.4
20260507170020 13 95 0.0 1.6 0.00 0.15 0.03 81 1012.3
20260507165520 13 97 0.0 3.2 0.00 0.15 0.03 81 1012.2
20260507165020 13 332 0.0 1.6 0.00 0.15 0.03 81 1012.2
20260507164019 13 218 1.6 4.8 0.00 0.15 0.03 80 1012.1
20260507163520 13 45 0.0 1.6 0.00 0.18 0.03 80 1012.1
20260507163019 13 45 0.0 1.6 0.00 0.18 0.03 79 1012.2
20260507162520 13 12 0.0 0.0 0.00 0.18 0.03 81 1012.1
20260507162019 14 11 0.0 0.0 0.00 0.18 0.03 81 1012.0
20260507161520 14 9 0.0 1.6 0.00 0.18 0.03 80 1012.0
20260507161019 14 311 0.0 0.0 0.00 0.18 0.03 81 1012.1
20260507160521 14 311 0.0 4.8 0.00 0.18 0.03 81 1012.2
20260507160021 14 342 0.0 1.6 0.00 0.18 0.03 80 1012.2
20260507155519 14 342 0.0 1.6 0.00 0.18 0.03 81 1012.3
20260507154519 14 218 0.0 1.6 0.00 0.18 0.03 80 1012.4
20260507154021 14 341 0.0 1.6 0.00 0.18 0.03 81 1012.6
20260507153020 14 176 0.0 0.0 0.00 0.18 0.03 82 1012.5
20260507152520 14 165 0.0 0.0 0.00 0.18 0.03 81 1012.5
20260507152019 14 140 0.0 1.6 0.00 0.18 0.03 82 1012.5
20260507151520 14 106 0.0 1.6 0.00 0.18 0.03 82 1012.5
20260507151019 14 111 1.6 3.2 0.00 0.18 0.03 81 1012.4
20260507150520 14 171 0.0 0.0 0.00 0.18 0.03 82 1012.4
20260507150019 14 171 0.0 1.6 0.00 0.18 0.03 82 1012.3
20260507145520 14 4 0.0 1.6 0.00 0.18 0.03 82 1012.2
20260507145019 14 3 0.0 1.6 0.00 0.18 0.03 82 1012.2
20260507144520 14 3 0.0 1.6 0.00 0.18 0.03 82 1012.3
20260507143520 14 2 0.0 3.2 0.00 0.18 0.03 82 1012.2
20260507142520 15 356 0.0 0.0 0.00 0.18 0.03 82 1012.0
20260507142019 15 351 0.0 0.0 0.00 0.18 0.03 82 1012.1
20260507141520 15 352 0.0 1.6 0.00 0.18 0.03 83 1012.1
20260507140519 15 286 1.6 4.8 0.00 0.18 0.03 83 1012.2
20260507140019 15 235 0.0 1.6 0.00 0.18 0.03 84 1011.9
20260507135519 15 59 1.6 3.2 0.00 0.18 0.03 85 1011.7
20260507135019 15 41 0.0 0.0 0.00 0.20 0.03 86 1011.9
20260507134020 15 47 0.0 0.0 0.00 0.20 0.03 85 1012.6
20260507133519 15 17 0.0 0.0 0.00 0.23 0.03 85 1012.5
20260507133021 15 29 0.0 3.2 0.00 0.23 0.03 85 1012.4
20260507132519 15 76 0.0 1.6 0.00 0.23 0.03 85 1012.3
20260507132019 14 136 0.0 1.6 0.00 0.23 0.03 86 1012.4
20260507131519 15 147 0.0 0.0 0.00 0.23 0.03 85 1012.4
20260507131020 15 179 0.0 0.0 0.00 0.23 0.03 86 1012.6
20260507130519 15 150 0.0 0.0 0.00 0.23 0.03 86 1012.7
20260507130019 15 131 0.0 1.6 0.00 0.23 0.03 86 1012.4
20260507125519 15 143 0.0 0.0 0.00 0.25 0.03 85 1012.3
20260507125019 15 143 0.0 0.0 0.00 0.25 0.03 87 1012.2
20260507124519 15 142 0.0 0.0 0.00 0.25 0.03 87 1012.4
20260507124019 14 195 0.0 0.0 0.00 0.25 0.03 87 1012.4
20260507123519 14 195 0.0 0.0 0.00 0.25 0.03 88 1012.4
20260507122519 14 263 0.0 3.2 0.00 0.25 0.03 89 1012.5
20260507122019 14 27 0.0 0.0 0.00 0.25 0.03 89 1012.4
20260507121518 14 27 0.0 0.0 0.00 0.25 0.03 89 1012.4
20260507121019 14 27 0.0 0.0 0.00 0.25 0.03 90 1012.2
20260507120519 14 39 0.0 0.0 0.00 0.25 0.03 89 1012.2
20260507120019 14 317 0.0 0.0 0.00 0.25 0.03 91 1012.4
20260507115520 14 319 0.0 0.0 0.00 0.25 0.03 91 1012.3
20260507115020 14 319 0.0 0.0 0.00 0.25 0.03 90 1012.2
20260507114519 14 319 0.0 0.0 0.00 0.25 0.03 91 1012.2
20260507113519 14 263 0.0 0.0 0.00 0.25 0.03 92 1012.2
20260507113019 14 263 0.0 0.0 0.00 0.25 0.03 92 1012.0
20260507112518 14 263 0.0 0.0 0.00 0.25 0.03 92 1011.9
20260507112019 14 263 0.0 0.0 0.00 0.25 0.03 91 1011.8
20260507111518 14 263 0.0 0.0 0.00 0.25 0.03 91 1012.0
20260507111019 14 263 0.0 0.0 0.00 0.25 0.03 91 1011.8
20260507110519 14 263 0.0 0.0 0.00 0.25 0.03 92 1011.6
20260507110019 14 263 0.0 0.0 0.00 0.25 0.03 92 1011.7
20260507105518 14 263 0.0 0.0 0.00 0.25 0.03 92 1011.8
20260507105020 14 101 0.0 0.0 0.00 0.25 0.03 92 1011.6
20260507104518 14 101 0.0 0.0 0.00 0.25 0.03 92 1011.8
20260507104019 14 101 0.0 1.6 0.00 0.25 0.03 91 1011.6
20260507103520 14 241 0.0 0.0 0.00 0.25 0.03 92 1011.4
20260507103018 14 241 0.0 0.0 0.00 0.25 0.03 92 1011.4
20260507102519 14 241 0.0 0.0 0.00 0.25 0.03 92 1011.5
20260507102019 14 241 0.0 0.0 0.00 0.25 0.03 92 1011.3
20260507101518 14 241 0.0 0.0 0.00 0.25 0.03 91 1011.7
20260507101020 14 241 0.0 0.0 0.00 0.25 0.03 91 1011.5
20260507095518 14 241 0.0 0.0 0.00 0.25 0.03 92 1011.3
20260507095019 15 241 0.0 0.0 0.00 0.25 0.03 92 1011.4
20260507094518 15 241 0.0 0.0 0.00 0.25 0.03 93 1011.7
20260507094019 15 241 0.0 0.0 0.00 0.25 0.03 93 1011.6
20260507093519 15 229 0.0 0.0 0.00 0.25 0.03 93 1011.2
20260507093018 15 229 0.0 0.0 0.00 0.25 0.03 93 1011.4
20260507092519 15 229 0.0 0.0 0.00 0.25 0.03 94 1011.6
20260507092018 15 229 0.0 1.6 0.00 0.25 0.03 95 1011.7
20260507091020 15 229 0.0 0.0 0.00 0.25 0.03 95 1011.4
20260507090020 15 229 0.0 0.0 0.00 0.25 0.03 96 1010.8
20260507085518 15 229 0.0 1.6 0.00 0.25 0.03 96 1010.7
20260507085019 15 229 0.0 0.0 0.00 0.25 0.03 96 1011.2
20260507084518 15 229 0.0 0.0 0.00 0.25 0.03 96 1011.0
20260507083519 15 229 0.0 1.6 0.00 0.25 0.03 96 1011.3
20260507083018 15 229 0.0 1.6 0.00 0.25 0.03 96 1011.6
20260507082519 15 229 0.0 1.6 0.00 0.25 0.03 95 1011.4
20260507082018 15 229 1.6 1.6 0.00 0.25 0.03 96 1011.2
20260507081519 15 229 0.0 1.6 0.00 0.25 0.03 95 1011.3
20260507080518 16 216 0.0 0.0 0.00 0.25 0.03 97 1011.2
20260507080019 16 216 0.0 0.0 0.00 0.25 0.03 97 1011.5
20260507075518 16 184 0.0 0.0 0.00 0.25 0.03 96 1011.4
20260507075019 16 184 0.0 0.0 0.00 0.25 0.03 96 1011.4
20260507074518 16 184 0.0 0.0 0.00 0.25 0.03 96 1011.5
20260507073519 16 184 0.0 0.0 0.00 0.25 0.03 96 1011.5
20260507073018 16 184 0.0 0.0 0.00 0.25 0.03 96 1011.5
20260507072520 16 184 0.0 0.0 0.00 0.25 0.03 97 1011.8
20260507072018 16 184 0.0 0.0 0.00 0.25 0.03 96 1011.5
20260507071519 16 184 0.0 0.0 0.00 0.25 0.03 97 1011.5
20260507071018 16 184 0.0 0.0 0.00 0.25 0.03 97 1011.2
20260507070518 16 184 0.0 0.0 0.00 0.25 0.03 97 1011.3
20260507070019 16 184 0.0 0.0 0.00 0.25 0.03 96 1011.3
20260507065018 16 168 0.0 0.0 0.00 0.25 0.03 96 1011.0
20260507064518 16 168 0.0 0.0 0.00 0.25 0.03 96 1011.0
20260507064018 16 168 0.0 0.0 0.00 0.25 0.03 96 1011.1
20260507063519 16 168 0.0 0.0 0.03 0.25 0.03 96 1011.5